Location: Linz
(48.3300°N, 14.3000°E)
Time: 10:28:26
(UTC+01:00)

Tiangong 2 - Pass Details

Date: 11 November 2017
Orbit: 386 x 392 km, 42.8° (Epoch: 22 November)

Event Time Altitude Azimuth Distance (km) Brightness Sun altitude
Rises 17:26:42 0° 264° (W) 2,276 7.0 -9.8°
Reaches altitude 10° 17:29:07 10° 247° (WSW) 1,418 5.5 -10.2°
Maximum altitude 17:31:32 20° 198° (SSW) 972 3.5 -10.6°
Drops below altitude 10° 17:33:56 10° 148° (SSE) 1,411 3.7 -11.0°
Enters shadow 17:35:31 - 135° (SE) 1,954 4.3 -11.2°
